^^
Saratoga-Weather Station Historical Data
Daily Summary for August 20, 2022 Units:  Metric    English   Both
Daily Weekly Monthly Yearly Custom
  High: Low: Average:
Temperature: 26.2 °C 16.4 °C 21.1 °C
Dew Point: 17 °C 10.8 °C 13.9 °C
Humidity: 88% 39% 66%
Wind Speed: 17.7km/h 0km/h 5.7km/h
Wind Gust: 22.5km/h - -
Wind- - WNW
Pressure: 1017.3 hPa 1014.9 hPa -
Precipitation: 0.0 mm    
Historical Graphs
 
 
Tabular Data for August 20, 2022
Time Temperature Dew Point Pressure Wind Wind Speed Wind Gust Humidity Rainfall Rate (Hourly) solar
00:02 21.1 °C 16.9 °C 1015.2 hPa WNW 6.4 km/h 11.3 km/h 77% 0.0 mm 0 W/m2
00:07 21.1 °C 16.9 °C 1015.2 hPa WNW 4.7 km/h 9.7 km/h 77% 0.0 mm 0 W/m2
00:12 20.9 °C 16.7 °C 1015.2 hPa West 11.1 km/h 19.3 km/h 77% 0.0 mm 0 W/m2
00:17 20.9 °C 16.7 °C 1015.2 hPa NW 7.9 km/h 16.1 km/h 77% 0.0 mm 0 W/m2
00:22 20.8 °C 16.8 °C 1015.2 hPa NW 3.2 km/h 19.3 km/h 78% 0.0 mm 0 W/m2
00:27 20.7 °C 16.7 °C 1015.2 hPa WNW 7.9 km/h 12.9 km/h 78% 0.0 mm 0 W/m2
00:32 20.6 °C 16.8 °C 1015.2 hPa WNW 4.7 km/h 14.5 km/h 79% 0.0 mm 0 W/m2
00:37 20.5 °C 16.7 °C 1015.2 hPa West 4.7 km/h 14.5 km/h 79% 0.0 mm 0 W/m2
00:42 20.4 °C 16.8 °C 1015.2 hPa West 4.7 km/h 11.3 km/h 80% 0.0 mm 0 W/m2
00:47 20.3 °C 16.7 °C 1015.2 hPa WNW 4.7 km/h 14.5 km/h 80% 0.0 mm 0 W/m2
00:52 20.3 °C 16.7 °C 1015.2 hPa SW 7.9 km/h 9.7 km/h 80% 0.0 mm 0 W/m2
00:57 20.3 °C 16.7 °C 1015.2 hPa WNW 1.4 km/h 4.8 km/h 80% 0.0 mm 0 W/m2
01:02 20.2 °C 16.6 °C 1015.2 hPa NW 1.4 km/h 6.4 km/h 80% 0.0 mm 0 W/m2
01:07 20.2 °C 16.6 °C 1015.2 hPa NW 3.2 km/h 3.2 km/h 80% 0.0 mm 0 W/m2
01:12 20.2 °C 16.8 °C 1015.2 hPa West 3.2 km/h 3.2 km/h 81% 0.0 mm 0 W/m2
01:17 20.2 °C 16.8 °C 1015.2 hPa WSW 6.4 km/h 6.4 km/h 81% 0.0 mm 0 W/m2
01:22 20.1 °C 16.7 °C 1015.2 hPa West 4.7 km/h 11.3 km/h 81% 0.0 mm 0 W/m2
01:27 20 °C 16.8 °C 1015.2 hPa West 4.7 km/h 9.7 km/h 82% 0.0 mm 0 W/m2
01:32 19.9 °C 16.7 °C 1015.2 hPa West 4.7 km/h 11.3 km/h 82% 0.0 mm 0 W/m2
01:37 19.9 °C 16.7 °C 1015.2 hPa West 4.7 km/h 4.8 km/h 82% 0.0 mm 0 W/m2
01:42 19.8 °C 16.8 °C 1015.2 hPa West 4.7 km/h 4.8 km/h 83% 0.0 mm 0 W/m2
01:47 19.8 °C 16.8 °C 1014.9 hPa WSW 4.7 km/h 6.4 km/h 83% 0.0 mm 0 W/m2
01:52 19.7 °C 16.9 °C 1015.2 hPa West 1.4 km/h 11.3 km/h 84% 0.0 mm 0 W/m2
01:57 19.6 °C 16.8 °C 1015.2 hPa West 1.4 km/h 9.7 km/h 84% 0.0 mm 0 W/m2
02:02 19.5 °C 16.9 °C 1015.2 hPa West 6.4 km/h 11.3 km/h 85% 0.0 mm 0 W/m2
02:07 19.4 °C 17 °C 1015.2 hPa WSW 11.1 km/h 12.9 km/h 86% 0.0 mm 0 W/m2
02:12 19.3 °C 16.9 °C 1014.9 hPa WNW 3.2 km/h 8 km/h 86% 0.0 mm 0 W/m2
02:17 19.3 °C 16.9 °C 1014.9 hPa West 3.2 km/h 6.4 km/h 86% 0.0 mm 0 W/m2
02:22 19.3 °C 16.9 °C 1014.9 hPa SW 3.2 km/h 6.4 km/h 86% 0.0 mm 0 W/m2
02:27 19.3 °C 16.9 °C 1014.9 hPa WSW 1.4 km/h 6.4 km/h 86% 0.0 mm 0 W/m2
02:32 19.3 °C 16.9 °C 1014.9 hPa WNW 6.4 km/h 9.7 km/h 86% 0.0 mm 0 W/m2
02:37 19.3 °C 16.9 °C 1014.9 hPa West 3.2 km/h 8 km/h 86% 0.0 mm 0 W/m2
02:42 19.3 °C 16.9 °C 1014.9 hPa West 4.7 km/h 9.7 km/h 86% 0.0 mm 0 W/m2
02:47 19.3 °C 16.9 °C 1014.9 hPa West 11.3 km/h 11.3 km/h 86% 0.0 mm 0 W/m2
02:52 19.2 °C 16.8 °C 1014.9 hPa WSW 6.4 km/h 9.7 km/h 86% 0.0 mm 0 W/m2
02:57 19.2 °C 16.8 °C 1014.9 hPa WNW 1.4 km/h 9.7 km/h 86% 0.0 mm 0 W/m2
03:02 19.2 °C 16.8 °C 1015.2 hPa WNW 3.2 km/h 6.4 km/h 86% 0.0 mm 0 W/m2
03:07 19.2 °C 17 °C 1015.2 hPa West 3.2 km/h 6.4 km/h 87% 0.0 mm 0 W/m2
03:12 19.1 °C 16.9 °C 1015.2 hPa West 3.2 km/h 6.4 km/h 87% 0.0 mm 0 W/m2
03:17 19.1 °C 16.9 °C 1015.2 hPa WNW 4.7 km/h 6.4 km/h 87% 0.0 mm 0 W/m2
03:22 19.1 °C 16.9 °C 1015.2 hPa WNW 3.2 km/h 6.4 km/h 87% 0.0 mm 0 W/m2
03:27 19 °C 16.8 °C 1015.2 hPa WNW 3.2 km/h 6.4 km/h 87% 0.0 mm 0 W/m2
03:32 18.9 °C 16.7 °C 1015.2 hPa West 4.7 km/h 6.4 km/h 87% 0.0 mm 0 W/m2
03:37 18.9 °C 16.9 °C 1015.2 hPa West 3.2 km/h 6.4 km/h 88% 0.0 mm 0 W/m2
03:42 18.9 °C 16.9 °C 1015.2 hPa West 6.4 km/h 6.4 km/h 88% 0.0 mm 0 W/m2
03:47 18.8 °C 16.8 °C 1015.2 hPa West 6.4 km/h 11.3 km/h 88% 0.0 mm 0 W/m2
03:52 18.8 °C 16.8 °C 1015.2 hPa West 3.2 km/h 11.3 km/h 88% 0.0 mm 0 W/m2
03:57 18.8 °C 16.8 °C 1015.2 hPa West 4.7 km/h 9.7 km/h 88% 0.0 mm 0 W/m2
04:02 18.8 °C 16.8 °C 1015.2 hPa WSW 4.7 km/h 6.4 km/h 88% 0.0 mm 0 W/m2
04:07 18.8 °C 16.8 °C 1015.2 hPa WNW 3.2 km/h 9.7 km/h 88% 0.0 mm 0 W/m2
04:12 18.8 °C 16.8 °C 1015.2 hPa West 3.2 km/h 4.8 km/h 88% 0.0 mm 0 W/m2
04:17 18.8 °C 16.8 °C 1015.2 hPa WNW 3.2 km/h 11.3 km/h 88% 0.0 mm 0 W/m2
04:22 18.8 °C 16.8 °C 1015.6 hPa WNW 3.2 km/h 9.7 km/h 88% 0.0 mm 0 W/m2
04:27 18.8 °C 16.8 °C 1015.2 hPa WNW 6.4 km/h 12.9 km/h 88% 0.0 mm 0 W/m2
04:32 18.8 °C 16.8 °C 1015.2 hPa WNW 3.2 km/h 9.7 km/h 88% 0.0 mm 0 W/m2
04:37 18.9 °C 16.9 °C 1015.6 hPa NW 3.2 km/h 11.3 km/h 88% 0.0 mm 0 W/m2
04:42 18.9 °C 16.7 °C 1015.2 hPa WNW 6.4 km/h 14.5 km/h 87% 0.0 mm 0 W/m2
04:47 18.8 °C 16.6 °C 1015.2 hPa NW 11.1 km/h 12.9 km/h 87% 0.0 mm 0 W/m2
04:52 18.8 °C 16.4 °C 1015.2 hPa WNW 4.7 km/h 14.5 km/h 86% 0.0 mm 0 W/m2
04:57 18.8 °C 16.4 °C 1015.2 hPa West 3.2 km/h 6.4 km/h 86% 0.0 mm 0 W/m2
05:02 18.7 °C 16.3 °C 1015.2 hPa WNW 1.4 km/h 6.4 km/h 86% 0.0 mm 0 W/m2
05:07 18.7 °C 16.3 °C 1015.6 hPa WNW 4.7 km/h 6.4 km/h 86% 0.0 mm 0 W/m2
05:13 18.7 °C 16.3 °C 1015.2 hPa WNW 4.7 km/h 11.3 km/h 86% 0.0 mm 0 W/m2
05:18 18.7 °C 16.3 °C 1015.2 hPa West 4.7 km/h 6.4 km/h 86% 0.0 mm 0 W/m2
05:23 18.6 °C 16.2 °C 1015.2 hPa West 6.4 km/h 12.9 km/h 86% 0.0 mm 0 W/m2
05:28 18.5 °C 16.1 °C 1015.2 hPa West 9.7 km/h 9.7 km/h 86% 0.0 mm 0 W/m2
05:33 18.5 °C 15.9 °C 1015.2 hPa West 4.7 km/h 6.4 km/h 85% 0.0 mm 0 W/m2
05:38 18.4 °C 15.8 °C 1015.6 hPa WNW 4.7 km/h 11.3 km/h 85% 0.0 mm 0 W/m2
05:43 18.4 °C 15.6 °C 1015.6 hPa WNW 6.4 km/h 9.7 km/h 84% 0.0 mm 0 W/m2
05:48 18.4 °C 15.6 °C 1015.6 hPa WSW 6.4 km/h 6.4 km/h 84% 0.0 mm 0 W/m2
05:53 18.3 °C 15.5 °C 1015.6 hPa West 3.2 km/h 6.4 km/h 84% 0.0 mm 0 W/m2
05:58 18.3 °C 15.4 °C 1015.6 hPa WNW 6.4 km/h 8 km/h 83% 0.0 mm 0 W/m2
06:03 18.2 °C 15.3 °C 1015.6 hPa West 1.4 km/h 6.4 km/h 83% 0.0 mm 0 W/m2
06:08 18.1 °C 15 °C 1015.6 hPa West 3.2 km/h 6.4 km/h 82% 0.0 mm 0 W/m2
06:13 18 °C 14.9 °C 1015.6 hPa WNW 6.4 km/h 9.7 km/h 82% 0.0 mm 0 W/m2
06:18 17.9 °C 14.8 °C 1015.6 hPa West 3.2 km/h 11.3 km/h 82% 0.0 mm 0 W/m2
06:23 17.8 °C 14.5 °C 1015.6 hPa West 4.7 km/h 4.8 km/h 81% 0.0 mm 0 W/m2
06:28 17.8 °C 14.5 °C 1015.6 hPa West 3.2 km/h 11.3 km/h 81% 0.0 mm 0 W/m2
06:33 17.7 °C 14.4 °C 1015.6 hPa West 1.4 km/h 4.8 km/h 81% 0.0 mm 0 W/m2
06:38 17.6 °C 14.7 °C 1015.6 hPa WSW 1.4 km/h 9.7 km/h 83% 0.0 mm 0 W/m2
06:43 17.5 °C 14.8 °C 1015.6 hPa West 1.4 km/h 4.8 km/h 84% 0.0 mm 0 W/m2
06:48 17.3 °C 14.6 °C 1015.9 hPa West 4.7 km/h 6.4 km/h 84% 0.0 mm 5 W/m2
06:53 17.2 °C 14.7 °C 1015.6 hPa WNW 1.4 km/h 3.2 km/h 85% 0.0 mm 7 W/m2
06:58 17.2 °C 14.8 °C 1015.6 hPa West 3.2 km/h 4.8 km/h 86% 0.0 mm 7 W/m2
07:03 17 °C 14.6 °C 1015.9 hPa NW 4.7 km/h 6.4 km/h 86% 0.0 mm 9 W/m2
07:08 16.9 °C 14.5 °C 1015.9 hPa Calm   3.2 km/h 86% 0.0 mm 11 W/m2
07:13 16.9 °C 14.5 °C 1015.9 hPa West 3.2 km/h 6.4 km/h 86% 0.0 mm 11 W/m2
07:18 16.8 °C 14.4 °C 1015.9 hPa West 1.4 km/h 4.8 km/h 86% 0.0 mm 12 W/m2
07:23 16.7 °C 14.3 °C 1016.3 hPa WNW 4.7 km/h 4.8 km/h 86% 0.0 mm 14 W/m2
07:28 16.6 °C 14.2 °C 1016.3 hPa West 1.4 km/h 4.8 km/h 86% 0.0 mm 14 W/m2
07:33 16.5 °C 14.1 °C 1016.3 hPa West 1.4 km/h 9.7 km/h 86% 0.0 mm 18 W/m2
07:38 16.4 °C 14.1 °C 1016.3 hPa West 1.4 km/h 3.2 km/h 86% 0.0 mm 23 W/m2
07:43 16.4 °C 14.2 °C 1016.3 hPa WSW 1.4 km/h 11.3 km/h 87% 0.0 mm 40 W/m2
07:48 16.4 °C 14.2 °C 1016.3 hPa WNW 1.4 km/h 4.8 km/h 87% 0.0 mm 81 W/m2
07:53 16.6 °C 14.2 °C 1016.3 hPa WNW 7.9 km/h 12.9 km/h 86% 0.0 mm 46 W/m2
07:58 16.6 °C 14.2 °C 1016.3 hPa WNW 1.4 km/h 6.4 km/h 86% 0.0 mm 100 W/m2
08:03 16.6 °C 14.2 °C 1016.6 hPa West 4.7 km/h 9.7 km/h 86% 0.0 mm 91 W/m2
08:08 16.7 °C 14.3 °C 1016.6 hPa WNW 4.7 km/h 12.9 km/h 86% 0.0 mm 35 W/m2
08:13 16.7 °C 14.2 °C 1016.3 hPa West 6.4 km/h 12.9 km/h 85% 0.0 mm 35 W/m2
08:18 16.7 °C 14.2 °C 1016.3 hPa West 6.4 km/h 8 km/h 85% 0.0 mm 40 W/m2
08:23 16.7 °C 14.2 °C 1016.6 hPa West 4.7 km/h 12.9 km/h 85% 0.0 mm 39 W/m2
08:28 16.9 °C 14.2 °C 1016.6 hPa WNW 4.7 km/h 11.3 km/h 84% 0.0 mm 37 W/m2
08:33 17 °C 14.1 °C 1016.6 hPa WNW 4.7 km/h 12.9 km/h 83% 0.0 mm 40 W/m2
08:38 17.1 °C 14.2 °C 1016.6 hPa West 4.7 km/h 12.9 km/h 83% 0.0 mm 39 W/m2
08:43 17.2 °C 14.1 °C 1016.6 hPa WNW 6.4 km/h 9.7 km/h 82% 0.0 mm 40 W/m2
08:48 17.1 °C 14 °C 1016.6 hPa West 6.4 km/h 11.3 km/h 82% 0.0 mm 39 W/m2
08:53 17.1 °C 14 °C 1016.6 hPa NW 7.9 km/h 12.9 km/h 82% 0.0 mm 40 W/m2
08:58 17.1 °C 13.8 °C 1016.6 hPa NW 7.9 km/h 14.5 km/h 81% 0.0 mm 40 W/m2
09:03 17.1 °C 13.8 °C 1016.9 hPa WSW 11.1 km/h 17.7 km/h 81% 0.0 mm 44 W/m2
09:08 17 °C 13.7 °C 1016.9 hPa NW 6.4 km/h 14.5 km/h 81% 0.0 mm 46 W/m2
09:13 17.1 °C 13.8 °C 1016.9 hPa West 3.2 km/h 12.9 km/h 81% 0.0 mm 56 W/m2
09:18 17.3 °C 14 °C 1016.9 hPa WNW 7.9 km/h 8 km/h 81% 0.0 mm 53 W/m2
09:23 17.4 °C 13.9 °C 1016.9 hPa West 4.7 km/h 11.3 km/h 80% 0.0 mm 70 W/m2
09:28 17.6 °C 14.1 °C 1016.9 hPa NNW 3.2 km/h 6.4 km/h 80% 0.0 mm 169 W/m2
09:33 17.8 °C 14.1 °C 1016.9 hPa WNW 4.7 km/h 12.9 km/h 79% 0.0 mm 84 W/m2
09:38 17.7 °C 14.2 °C 1016.9 hPa WNW 6.4 km/h 9.7 km/h 80% 0.0 mm 67 W/m2
09:43 18 °C 14.3 °C 1016.9 hPa West 4.7 km/h 8 km/h 79% 0.0 mm 144 W/m2
09:48 18.2 °C 14.1 °C 1016.9 hPa WSW 4.7 km/h 8 km/h 77% 0.0 mm 76 W/m2
09:53 18.2 °C 14.1 °C 1016.9 hPa WNW 7.9 km/h 11.3 km/h 77% 0.0 mm 60 W/m2
09:58 18.2 °C 14.1 °C 1016.9 hPa WNW 4.7 km/h 12.9 km/h 77% 0.0 mm 54 W/m2
10:03 18.3 °C 14.2 °C 1016.9 hPa NNW 6.4 km/h 12.9 km/h 77% 0.0 mm 90 W/m2
10:08 18.4 °C 14.1 °C 1017.3 hPa WSW 6.4 km/h 8 km/h 76% 0.0 mm 480 W/m2
10:13 18.6 °C 14.3 °C 1017.3 hPa SW 3.2 km/h 14.5 km/h 76% 0.0 mm 510 W/m2
10:18 18.6 °C 14.3 °C 1017.3 hPa WNW 3.2 km/h 4.8 km/h 76% 0.0 mm 517 W/m2
10:23 18.8 °C 14.3 °C 1017.3 hPa West 9.7 km/h 16.1 km/h 75% 0.0 mm 526 W/m2
10:28 18.9 °C 14.4 °C 1017.3 hPa WNW 7.9 km/h 12.9 km/h 75% 0.0 mm 529 W/m2
10:33 19.1 °C 14.4 °C 1017.3 hPa West 9.7 km/h 16.1 km/h 74% 0.0 mm 548 W/m2
10:38 19.2 °C 14.5 °C 1017.3 hPa SW 11.1 km/h 14.5 km/h 74% 0.0 mm 563 W/m2
10:43 19.4 °C 14.4 °C 1017.3 hPa NNW 4.7 km/h 12.9 km/h 73% 0.0 mm 568 W/m2
10:48 19.4 °C 14.4 °C 1017.3 hPa WSW 4.7 km/h 14.5 km/h 73% 0.0 mm 580 W/m2
10:53 19.7 °C 14.5 °C 1017.3 hPa NNW 4.7 km/h 12.9 km/h 72% 0.0 mm 592 W/m2
10:58 19.7 °C 14.5 °C 1017.3 hPa NW 13 km/h 14.5 km/h 72% 0.0 mm 613 W/m2
11:03 19.8 °C 14.6 °C 1017.3 hPa North 6.4 km/h 11.3 km/h 72% 0.0 mm 613 W/m2
11:08 20 °C 14.8 °C 1017.3 hPa WNW 3.2 km/h 12.9 km/h 72% 0.0 mm 626 W/m2
11:13 20.2 °C 15 °C 1017.3 hPa NNW 1.4 km/h 12.9 km/h 72% 0.0 mm 675 W/m2
11:18 20.3 °C 14.6 °C 1017.3 hPa WNW 3.2 km/h 12.9 km/h 70% 0.0 mm 664 W/m2
11:23 20.6 °C 14.9 °C 1017.3 hPa WSW 3.2 km/h 9.7 km/h 70% 0.0 mm 700 W/m2
11:28 20.7 °C 14.8 °C 1017.3 hPa NNW 3.2 km/h 16.1 km/h 69% 0.0 mm 671 W/m2
11:33 20.8 °C 14.9 °C 1017.3 hPa WSW 7.9 km/h 11.3 km/h 69% 0.0 mm 673 W/m2
11:38 20.9 °C 14.8 °C 1017.3 hPa WSW 11.1 km/h 16.1 km/h 68% 0.0 mm 705 W/m2
11:43 21.2 °C 14.8 °C 1017.3 hPa NW 4.7 km/h 16.1 km/h 67% 0.0 mm 707 W/m2
11:48 21.2 °C 14.8 °C 1017.3 hPa NW 7.9 km/h 14.5 km/h 67% 0.0 mm 722 W/m2
11:53 21.2 °C 14.8 °C 1016.9 hPa North 13 km/h 16.1 km/h 67% 0.0 mm 717 W/m2
11:58 21.3 °C 14.7 °C 1016.9 hPa WNW 4.7 km/h 8 km/h 66% 0.0 mm 731 W/m2
12:03 21.6 °C 15 °C 1017.3 hPa WSW 11.1 km/h 16.1 km/h 66% 0.0 mm 745 W/m2
12:08 21.6 °C 14.7 °C 1016.9 hPa NW 7.9 km/h 19.3 km/h 65% 0.0 mm 735 W/m2
12:13 21.7 °C 14.3 °C 1016.9 hPa NW 7.9 km/h 14.5 km/h 63% 0.0 mm 754 W/m2
12:18 21.8 °C 14.7 °C 1016.9 hPa West 3.2 km/h 19.3 km/h 64% 0.0 mm 761 W/m2
12:23 22.1 °C 15 °C 1016.9 hPa NW 4.7 km/h 11.3 km/h 64% 0.0 mm 763 W/m2
12:28 22.3 °C 14.4 °C 1016.9 hPa WNW 3.2 km/h 9.7 km/h 61% 0.0 mm 784 W/m2
12:33 22.4 °C 14.5 °C 1016.9 hPa NW 6.4 km/h 11.3 km/h 61% 0.0 mm 791 W/m2
12:38 22.6 °C 14.4 °C 1016.9 hPa WNW 7.9 km/h 12.9 km/h 60% 0.0 mm 840 W/m2
12:43 22.7 °C 14.5 °C 1016.9 hPa North 3.2 km/h 9.7 km/h 60% 0.0 mm 824 W/m2
12:48 22.7 °C 14 °C 1016.9 hPa WNW 3.2 km/h 9.7 km/h 58% 0.0 mm 195 W/m2
12:53 22.4 °C 13.7 °C 1016.9 hPa West 13 km/h 19.3 km/h 58% 0.0 mm 137 W/m2
12:58 22.5 °C 14.1 °C 1016.9 hPa WSW 16.3 km/h 16.1 km/h 59% 0.0 mm 821 W/m2
13:03 22.7 °C 14 °C 1016.9 hPa West 4.7 km/h 12.9 km/h 58% 0.0 mm 823 W/m2
13:13 23.3 °C 13.2 °C 1016.6 hPa NNW 9.7 km/h 12.9 km/h 53% 0.0 mm 823 W/m2
13:18 23.2 °C 13.1 °C 1016.6 hPa NW 6.4 km/h 20.9 km/h 53% 0.0 mm 847 W/m2
13:24 23.3 °C 13.5 °C 1016.6 hPa WNW 4.7 km/h 14.5 km/h 54% 0.0 mm 823 W/m2
13:29 23.7 °C 13.6 °C 1016.9 hPa West 9.7 km/h 20.9 km/h 53% 0.0 mm 833 W/m2
13:34 23.7 °C 13.3 °C 1016.9 hPa WSW 4.7 km/h 20.9 km/h 52% 0.0 mm 805 W/m2
13:39 23.7 °C 13.6 °C 1016.6 hPa NW 14.3 km/h 19.3 km/h 53% 0.0 mm 809 W/m2
13:44 23.7 °C 13.3 °C 1016.9 hPa WSW 11.1 km/h 20.9 km/h 52% 0.0 mm 800 W/m2
13:49 23.8 °C 13.1 °C 1016.9 hPa NNW 9.7 km/h 12.9 km/h 51% 0.0 mm 798 W/m2
13:54 23.9 °C 13.1 °C 1016.9 hPa NW 9.7 km/h 17.7 km/h 51% 0.0 mm 826 W/m2
13:59 23.8 °C 13.1 °C 1016.9 hPa NW 6.4 km/h 11.3 km/h 51% 0.0 mm 796 W/m2
14:04 23.8 °C 12.8 °C 1016.9 hPa NW 3.2 km/h 12.9 km/h 50% 0.0 mm 791 W/m2
14:09 24.1 °C 12.4 °C 1016.6 hPa NW 6.4 km/h 12.9 km/h 48% 0.0 mm 798 W/m2
14:14 24.3 °C 12.6 °C 1016.9 hPa NW 6.4 km/h 20.9 km/h 48% 0.0 mm 798 W/m2
14:19 24.3 °C 12.6 °C 1016.9 hPa WNW 3.2 km/h 11.3 km/h 48% 0.0 mm 795 W/m2
14:24 24.5 °C 11.8 °C 1016.6 hPa WNW 14.3 km/h 20.9 km/h 45% 0.0 mm 791 W/m2
14:29 24.2 °C 11.8 °C 1016.9 hPa West 9.7 km/h 19.3 km/h 46% 0.0 mm 793 W/m2
14:34 24.2 °C 12.2 °C 1016.6 hPa West 6.4 km/h 12.9 km/h 47% 0.0 mm 789 W/m2
14:39 24.3 °C 12.3 °C 1016.6 hPa West 6.4 km/h 19.3 km/h 47% 0.0 mm 779 W/m2
14:44 24.5 °C 12.4 °C 1016.6 hPa North 6.4 km/h 12.9 km/h 47% 0.0 mm 782 W/m2
14:49 24.6 °C 12.5 °C 1016.6 hPa NW 13 km/h 16.1 km/h 47% 0.0 mm 773 W/m2
14:54 24.6 °C 12.2 °C 1016.6 hPa WSW 13 km/h 17.7 km/h 46% 0.0 mm 768 W/m2
14:59 24.3 °C 12.6 °C 1016.6 hPa NNW 3.2 km/h 12.9 km/h 48% 0.0 mm 765 W/m2
15:04 24.6 °C 12.5 °C 1016.6 hPa West 6.4 km/h 16.1 km/h 47% 0.0 mm 758 W/m2
15:09 24.7 °C 12.3 °C 1016.6 hPa WSW 11.1 km/h 14.5 km/h 46% 0.0 mm 759 W/m2
15:14 24.7 °C 12.3 °C 1016.6 hPa NW 4.7 km/h 12.9 km/h 46% 0.0 mm 747 W/m2
15:19 24.8 °C 12.4 °C 1016.6 hPa West 6.4 km/h 19.3 km/h 46% 0.0 mm 751 W/m2
15:24 24.8 °C 12.4 °C 1016.6 hPa WSW 9.7 km/h 12.9 km/h 46% 0.0 mm 747 W/m2
15:29 24.8 °C 12.1 °C 1016.6 hPa WNW 3.2 km/h 19.3 km/h 45% 0.0 mm 742 W/m2
15:34 25.1 °C 12 °C 1016.6 hPa West 17.7 km/h 19.3 km/h 44% 0.0 mm 733 W/m2
15:39 25.1 °C 12 °C 1016.6 hPa NW 3.2 km/h 12.9 km/h 44% 0.0 mm 719 W/m2
15:44 25.1 °C 11.6 °C 1016.6 hPa SW 3.2 km/h 22.5 km/h 43% 0.0 mm 715 W/m2
15:49 25.1 °C 11.3 °C 1016.6 hPa North 4.7 km/h 17.7 km/h 42% 0.0 mm 712 W/m2
15:54 25.3 °C 11.5 °C 1016.3 hPa West 13 km/h 19.3 km/h 42% 0.0 mm 693 W/m2
15:59 25.6 °C 12.1 °C 1016.3 hPa NW 14.3 km/h 16.1 km/h 43% 0.0 mm 684 W/m2
16:04 25.5 °C 12 °C 1016.3 hPa WNW 1.4 km/h 11.3 km/h 43% 0.0 mm 687 W/m2
16:09 25.6 °C 11.7 °C 1016.6 hPa NW 6.4 km/h 14.5 km/h 42% 0.0 mm 673 W/m2
16:14 25.6 °C 12.1 °C 1016.3 hPa West 11.1 km/h 16.1 km/h 43% 0.0 mm 661 W/m2
16:19 25.6 °C 11.7 °C 1016.3 hPa NW 7.9 km/h 12.9 km/h 42% 0.0 mm 654 W/m2
16:24 25.6 °C 12.1 °C 1016.3 hPa NW 4.7 km/h 12.9 km/h 43% 0.0 mm 642 W/m2
16:29 25.7 °C 11.5 °C 1016.3 hPa West 6.4 km/h 17.7 km/h 41% 0.0 mm 640 W/m2
16:34 25.8 °C 10.8 °C 1016.3 hPa NW 7.9 km/h 14.5 km/h 39% 0.0 mm 636 W/m2
16:39 25.7 °C 11.5 °C 1016.3 hPa WNW 7.9 km/h 11.3 km/h 41% 0.0 mm 624 W/m2
16:44 25.6 °C 11.4 °C 1016.3 hPa WNW 4.7 km/h 12.9 km/h 41% 0.0 mm 606 W/m2
16:49 25.8 °C 11.5 °C 1016.3 hPa WSW 13 km/h 14.5 km/h 41% 0.0 mm 594 W/m2
16:54 26 °C 11.7 °C 1016.3 hPa North 7.9 km/h 16.1 km/h 41% 0.0 mm 575 W/m2
16:59 26 °C 11.7 °C 1016.3 hPa West 9.7 km/h 12.9 km/h 41% 0.0 mm 577 W/m2
17:04 26.2 °C 11.5 °C 1016.3 hPa WNW 6.4 km/h 12.9 km/h 40% 0.0 mm 564 W/m2
17:09 26.2 °C 11.9 °C 1016.3 hPa NNW 3.2 km/h 11.3 km/h 41% 0.0 mm 550 W/m2
17:14 26.2 °C 11.9 °C 1015.9 hPa West 11.1 km/h 11.3 km/h 41% 0.0 mm 533 W/m2
17:19 26 °C 11.7 °C 1015.9 hPa WSW 7.9 km/h 12.9 km/h 41% 0.0 mm 524 W/m2
17:24 25.9 °C 11.3 °C 1015.9 hPa West 9.7 km/h 14.5 km/h 40% 0.0 mm 515 W/m2
17:29 26.1 °C 11.4 °C 1015.9 hPa WNW 6.4 km/h 16.1 km/h 40% 0.0 mm 499 W/m2
17:34 25.9 °C 11.6 °C 1015.9 hPa West 13 km/h 20.9 km/h 41% 0.0 mm 490 W/m2
17:39 25.9 °C 11.3 °C 1015.9 hPa WNW 9.7 km/h 14.5 km/h 40% 0.0 mm 473 W/m2
17:44 25.9 °C 11.3 °C 1015.9 hPa West 4.7 km/h 17.7 km/h 40% 0.0 mm 462 W/m2
17:49 26 °C 11.4 °C 1015.9 hPa North 4.7 km/h 16.1 km/h 40% 0.0 mm 454 W/m2
17:54 26.2 °C 11.2 °C 1015.9 hPa West 13 km/h 14.5 km/h 39% 0.0 mm 438 W/m2
17:59 26.2 °C 11.2 °C 1015.9 hPa WNW 3.2 km/h 12.9 km/h 39% 0.0 mm 415 W/m2
18:04 26.2 °C 11.5 °C 1015.9 hPa NW 13 km/h 14.5 km/h 40% 0.0 mm 406 W/m2
18:09 26 °C 11.4 °C 1015.9 hPa SW 6.4 km/h 11.3 km/h 40% 0.0 mm 373 W/m2
18:14 25.9 °C 11.6 °C 1015.9 hPa NW 3.2 km/h 16.1 km/h 41% 0.0 mm 366 W/m2
18:19 25.9 °C 12 °C 1015.9 hPa West 3.2 km/h 17.7 km/h 42% 0.0 mm 353 W/m2
18:24 25.9 °C 12 °C 1015.9 hPa West 1.4 km/h 4.8 km/h 42% 0.0 mm 339 W/m2
18:29 26.1 °C 11.8 °C 1015.9 hPa West 3.2 km/h 17.7 km/h 41% 0.0 mm 334 W/m2
18:34 26.1 °C 11.8 °C 1015.9 hPa NW 4.7 km/h 12.9 km/h 41% 0.0 mm 318 W/m2
18:39 26 °C 12.1 °C 1015.9 hPa NW 3.2 km/h 12.9 km/h 42% 0.0 mm 301 W/m2
18:44 25.9 °C 11.6 °C 1015.9 hPa WSW 4.7 km/h 8 km/h 41% 0.0 mm 283 W/m2
18:49 25.8 °C 11.9 °C 1015.9 hPa West 6.4 km/h 11.3 km/h 42% 0.0 mm 269 W/m2
18:54 25.7 °C 11.8 °C 1015.9 hPa NW 3.2 km/h 9.7 km/h 42% 0.0 mm 237 W/m2
18:59 25.6 °C 11.7 °C 1015.9 hPa WNW 6.4 km/h 8 km/h 42% 0.0 mm 230 W/m2
19:04 25.6 °C 11.7 °C 1015.9 hPa West 9.7 km/h 11.3 km/h 42% 0.0 mm 221 W/m2
19:09 25.4 °C 11.9 °C 1015.9 hPa NNW 6.4 km/h 12.9 km/h 43% 0.0 mm 197 W/m2
19:14 25.4 °C 12.3 °C 1015.9 hPa NW 3.2 km/h 11.3 km/h 44% 0.0 mm 169 W/m2
19:19 25.4 °C 12.3 °C 1015.9 hPa WNW 4.7 km/h 16.1 km/h 44% 0.0 mm 151 W/m2
19:24 25.3 °C 12.2 °C 1015.9 hPa WSW 1.4 km/h 8 km/h 44% 0.0 mm 58 W/m2
19:29 25.3 °C 12.5 °C 1015.9 hPa West 4.7 km/h 11.3 km/h 45% 0.0 mm 40 W/m2
19:34 25.2 °C 12.4 °C 1015.9 hPa WNW 6.4 km/h 6.4 km/h 45% 0.0 mm 37 W/m2
19:39 25.1 °C 12.7 °C 1015.9 hPa NW 3.2 km/h 6.4 km/h 46% 0.0 mm 35 W/m2
19:44 24.9 °C 12.5 °C 1015.9 hPa WSW 4.7 km/h 8 km/h 46% 0.0 mm 32 W/m2
19:49 24.7 °C 12.6 °C 1015.9 hPa West 1.4 km/h 11.3 km/h 47% 0.0 mm 30 W/m2
19:54 24.5 °C 12.8 °C 1015.9 hPa West 4.7 km/h 6.4 km/h 48% 0.0 mm 28 W/m2
19:59 24.3 °C 12.6 °C 1015.9 hPa NW 3.2 km/h 12.9 km/h 48% 0.0 mm 25 W/m2
20:04 24.1 °C 12.7 °C 1016.3 hPa West 6.4 km/h 6.4 km/h 49% 0.0 mm 21 W/m2
20:09 23.8 °C 12.8 °C 1016.3 hPa West 4.7 km/h 12.9 km/h 50% 0.0 mm 19 W/m2
20:14 23.5 °C 12.5 °C 1016.3 hPa WNW 11.1 km/h 11.3 km/h 50% 0.0 mm 16 W/m2
20:19 23.3 °C 12.3 °C 1016.3 hPa West 9.7 km/h 9.7 km/h 50% 0.0 mm 14 W/m2
20:24 23.1 °C 12.4 °C 1016.3 hPa West 3.2 km/h 11.3 km/h 51% 0.0 mm 12 W/m2
20:29 22.9 °C 12.2 °C 1016.3 hPa West 4.7 km/h 9.7 km/h 51% 0.0 mm 9 W/m2
20:34 22.8 °C 12.1 °C 1016.3 hPa West 3.2 km/h 9.7 km/h 51% 0.0 mm 7 W/m2
20:39 22.7 °C 12 °C 1016.3 hPa SW 6.4 km/h 8 km/h 51% 0.0 mm 5 W/m2
20:44 22.5 °C 12.2 °C 1016.3 hPa West 6.4 km/h 11.3 km/h 52% 0.0 mm 0 W/m2
20:49 22.4 °C 12.1 °C 1016.3 hPa West 3.2 km/h 8 km/h 52% 0.0 mm 0 W/m2
20:54 22.3 °C 12.3 °C 1016.3 hPa West 6.4 km/h 9.7 km/h 53% 0.0 mm 0 W/m2
20:59 22.1 °C 12.1 °C 1016.3 hPa West 6.4 km/h 12.9 km/h 53% 0.0 mm 0 W/m2
21:04 22 °C 12 °C 1016.3 hPa West 4.7 km/h 14.5 km/h 53% 0.0 mm 0 W/m2
21:09 21.9 °C 11.9 °C 1016.6 hPa West 4.7 km/h 14.5 km/h 53% 0.0 mm 0 W/m2
21:14 21.8 °C 11.8 °C 1016.6 hPa WNW 11.1 km/h 12.9 km/h 53% 0.0 mm 0 W/m2
21:19 21.8 °C 12.1 °C 1016.3 hPa West 4.7 km/h 11.3 km/h 54% 0.0 mm 0 W/m2
21:24 21.6 °C 11.9 °C 1016.6 hPa West 3.2 km/h 11.3 km/h 54% 0.0 mm 0 W/m2
21:30 21.6 °C 11.9 °C 1016.6 hPa WSW 7.9 km/h 12.9 km/h 54% 0.0 mm 0 W/m2
21:35 21.4 °C 11.7 °C 1016.6 hPa WSW 6.4 km/h 12.9 km/h 54% 0.0 mm 0 W/m2
21:40 21.4 °C 11.7 °C 1016.6 hPa WSW 13 km/h 12.9 km/h 54% 0.0 mm 0 W/m2
21:45 21.3 °C 11.9 °C 1016.6 hPa WNW 3.2 km/h 14.5 km/h 55% 0.0 mm 0 W/m2
21:50 21.2 °C 11.8 °C 1016.6 hPa WSW 11.1 km/h 14.5 km/h 55% 0.0 mm 0 W/m2
21:55 21.2 °C 11.8 °C 1016.6 hPa West 4.7 km/h 14.5 km/h 55% 0.0 mm 0 W/m2
22:00 21.1 °C 11.7 °C 1016.6 hPa SW 7.9 km/h 12.9 km/h 55% 0.0 mm 0 W/m2
22:05 21.1 °C 11.7 °C 1016.6 hPa WSW 11.1 km/h 12.9 km/h 55% 0.0 mm 0 W/m2
22:10 21 °C 11.9 °C 1016.6 hPa WNW 6.4 km/h 14.5 km/h 56% 0.0 mm 0 W/m2
22:15 20.9 °C 11.8 °C 1016.6 hPa West 6.4 km/h 9.7 km/h 56% 0.0 mm 0 W/m2
22:20 20.9 °C 11.8 °C 1016.6 hPa WNW 7.9 km/h 16.1 km/h 56% 0.0 mm 0 W/m2
22:25 20.9 °C 11.8 °C 1016.6 hPa West 4.7 km/h 14.5 km/h 56% 0.0 mm 0 W/m2
22:30 20.9 °C 11.8 °C 1016.6 hPa WNW 4.7 km/h 16.1 km/h 56% 0.0 mm 0 W/m2
22:35 20.8 °C 11.7 °C 1016.9 hPa WNW 4.7 km/h 11.3 km/h 56% 0.0 mm 0 W/m2
22:40 20.6 °C 11.8 °C 1016.9 hPa West 4.7 km/h 4.8 km/h 57% 0.0 mm 0 W/m2
22:45 20.4 °C 11.9 °C 1016.9 hPa WNW 3.2 km/h 9.7 km/h 58% 0.0 mm 0 W/m2
22:50 20.3 °C 11.8 °C 1016.9 hPa West 3.2 km/h 6.4 km/h 58% 0.0 mm 0 W/m2
22:55 20.1 °C 11.8 °C 1016.9 hPa West 4.7 km/h 4.8 km/h 59% 0.0 mm 0 W/m2
23:00 19.9 °C 11.9 °C 1016.9 hPa WSW 6.4 km/h 11.3 km/h 60% 0.0 mm 0 W/m2
23:05 19.8 °C 11.8 °C 1016.9 hPa WSW 6.4 km/h 11.3 km/h 60% 0.0 mm 0 W/m2
23:10 19.8 °C 11.8 °C 1016.9 hPa West 6.4 km/h 12.9 km/h 60% 0.0 mm 0 W/m2
23:15 19.8 °C 11.8 °C 1016.6 hPa West 6.4 km/h 11.3 km/h 60% 0.0 mm 0 W/m2
23:20 19.7 °C 12 °C 1016.6 hPa West 3.2 km/h 6.4 km/h 61% 0.0 mm 0 W/m2
23:25 19.6 °C 11.9 °C 1016.6 hPa WNW 1.4 km/h 4.8 km/h 61% 0.0 mm 0 W/m2
23:30 19.6 °C 12.1 °C 1016.6 hPa West 4.7 km/h 6.4 km/h 62% 0.0 mm 0 W/m2
23:35 19.5 °C 12 °C 1016.9 hPa West 3.2 km/h 8 km/h 62% 0.0 mm 0 W/m2
23:40 19.5 °C 12 °C 1016.6 hPa WSW 3.2 km/h 6.4 km/h 62% 0.0 mm 0 W/m2
23:45 19.5 °C 12 °C 1016.6 hPa West 3.2 km/h 4.8 km/h 62% 0.0 mm 0 W/m2
23:50 19.5 °C 12 °C 1016.6 hPa West 3.2 km/h 6.4 km/h 62% 0.0 mm 0 W/m2
23:55 19.4 °C 11.9 °C 1016.6 hPa West 4.7 km/h 9.7 km/h 62% 0.0 mm 0 W/m2
Juneau County Weather
Compliments of Weather Underground - 4 mb